Location: Arnolds Mill
(42.3415°N, 73.5951°W)
Time: 12:57:29
(UTC+00:00)

STARLINK-34445 - Pass Details

Date: 23 June 2025
Orbit: 300 x 301 km, 53.2° (Epoch: 26 June)

Event Time Altitude Azimuth Distance (km) Brightness Sun altitude
Exits shadow 05:58:07 18° 347° (NNW) 816 5.2 -22.7°
Drops below altitude 10° 05:59:45 10° 25° (NNE) 1,168 6.4 -22.6°
Sets 06:02:00 0° 45° (NE) 1,987 7.5 -22.5°
